{"data":{"norad_id":59223,"intl_designator":"2024-046Y","name":"STARLINK-31420","alt_names":[],"object_type":"PAYLOAD","status":"ACTIVE","operator":null,"country":"US","launch_date":"2024-03-11","launch_site_code":"AFWTR","launch_vehicle":null,"mission":null,"orbit_class":"UNKNOWN","rcs_meters":null,"size_class":null,"mass_kg":null,"dimensions":null,"purposes":["comms"],"wikipedia_slug":null,"has_3d_model":false,"image_url":null,"decayed_at":null,"tle_current":{"epoch":"2026-05-25T00:36:48.461760Z","epoch_age_seconds":79806,"freshness":"FRESH","line1":"1 59223U 24046Y   26145.02556090  .00002249  00000+0  88008-4 0  9996","line2":"2 59223  53.1593 160.9901 0000990 129.5044 230.6045 15.30208367124729","mean_motion":15.30208367,"eccentricity":9.9e-5,"inclination_deg":53.1593,"raan_deg":160.9901,"arg_perigee_deg":129.5044,"mean_anomaly_deg":230.6045,"bstar":8.8008e-5,"rev_number":12472,"period_min":94.104831149443,"perigee_km":474.51160779769,"apogee_km":475.86856656095,"semimajor_km":6853.3270871793,"source":"CELESTRAK","updated_at":"2026-05-25T13:38:18.868868Z"}}}